Weather History for Abilene, TX

Change the Weather History Date:

Tuesday, June 11, 2013

  Actual Average Record
Temperature  
Mean Temperature 84 °F 79 °F  
Max Temperature 96 °F 90 °F 105 °F (2012)
Min Temperature 71 °F 68 °F 53 °F (1955)
Degree Days  
Heating Degree Days 0 0  
Month to date heating degree days 0 0  
Since 1 June heating degree days 0 0  
Since 1 July heating degree days 2301 2558  
Cooling Degree Days 19 14  
Month to date cooling degree days 161 142  
Year to date cooling degree days 642 539  
Since 1 June cooling degree days 161 142  
Growing Degree Days 34 (Base 50)    
Moisture  
Dew Point 61 °F    
Average Humidity 52    
Maximum Humidity 74    
Minimum Humidity 30    
Precipitation  
Precipitation 0.00 in 0.13 in 2.46 in (1945)
Month to date precipitation 0.73 1.54  
Year to date precipitation 6.95 10.48  
Sea Level Pressure  
Sea Level Pressure 29.90 in    
Wind  
Wind Speed 12 mph (SSE)    
Max Wind Speed 21 mph    
Max Gust Speed 26 mph    
Visibility 10 miles    
Events      
T = Trace of Precipitation, MM = Missing Value Source: NWS Daily Summary

Daily Weather History Graph

Daily Weather History Graph

Search for Another Location

Airport:

Trip Planner

Search our weather history database for the weather conditions in past years. The results will help you decide how hot, cold, wet, or windy it might be!

Date:

Astronomy

Jun. 11, 2013 Rise Set
Actual Time 6:31 AM CDT 8:46 PM CDT
Civil Twilight 6:02 AM CDT 9:14 PM CDT
Nautical Twilight 5:28 AM CDT 9:49 PM CDT
Astronomical Twilight 4:50 AM CDT 10:26 PM CDT
Moon 9:09 AM CDT (6/11) 10:58 PM CDT (6/11)
Length of Visible Light 15h 11m
Length of Day
14h 14m
Waxing Crescent, 8% of the Moon is Illuminated
Jun 11
Waxing Crescent
Jun 16
First Quarter
Jun 23
Full
Jun 29
Last Quarter
Jul 8
New

Hourly Weather History & Observations

Time (CDT) Temp. Heat Index Dew Point Humidity Pressure Visibility Wind Dir Wind Speed Gust Speed Precip Events Conditions
12:52 AM 73.9 °F - 50.0 °F 43% 29.91 in 10.0 mi SE 6.9 mph - N/A   Clear
1:52 AM 73.0 °F - 52.0 °F 48% 29.91 in 10.0 mi SE 9.2 mph - N/A   Clear
2:52 AM 72.0 °F - 53.1 °F 51% 29.90 in 10.0 mi SSE 6.9 mph - N/A   Clear
3:52 AM 75.0 °F - 57.9 °F 55% 29.88 in 10.0 mi South 6.9 mph - N/A   Clear
4:52 AM 73.0 °F - 61.0 °F 66% 29.89 in 10.0 mi South 8.1 mph - N/A   Clear
5:52 AM 73.9 °F - 63.0 °F 68% 29.91 in 10.0 mi SSE 8.1 mph - N/A   Clear
6:52 AM 73.0 °F - 64.0 °F 73% 29.93 in 10.0 mi SSE 9.2 mph - N/A   Clear
7:52 AM 75.0 °F - 66.0 °F 73% 29.94 in 10.0 mi South 8.1 mph - N/A   Clear
8:52 AM 79.0 °F - 66.9 °F 66% 29.95 in 10.0 mi South 13.8 mph - N/A   Clear
9:52 AM 82.9 °F 85.8 °F 68.0 °F 60% 29.96 in 10.0 mi SSW 11.5 mph - N/A   Clear
10:52 AM 84.9 °F 87.6 °F 66.9 °F 55% 29.96 in 10.0 mi South 13.8 mph - N/A   Clear
11:52 AM 89.1 °F 90.3 °F 64.0 °F 43% 29.96 in 10.0 mi South 12.7 mph 20.7 mph N/A   Clear
12:52 PM 90.0 °F 90.3 °F 62.1 °F 39% 29.95 in 10.0 mi SSE 13.8 mph - N/A   Clear
1:52 PM 91.9 °F 92.9 °F 63.0 °F 38% 29.93 in 10.0 mi SSE 10.4 mph 19.6 mph N/A   Partly Cloudy
2:52 PM 93.0 °F 93.8 °F 62.1 °F 36% 29.91 in 10.0 mi SSE 13.8 mph 21.9 mph N/A   Partly Cloudy
3:52 PM 93.9 °F 93.2 °F 59.0 °F 31% 29.89 in 10.0 mi South 11.5 mph - N/A   Clear
4:52 PM 95.0 °F 94.8 °F 60.1 °F 31% 29.87 in 10.0 mi SSE 16.1 mph 21.9 mph N/A   Partly Cloudy
5:52 PM 95.0 °F 95.2 °F 61.0 °F 32% 29.86 in 10.0 mi SE 15.0 mph 23.0 mph N/A   Partly Cloudy
6:52 PM 93.9 °F 93.2 °F 59.0 °F 31% 29.85 in 10.0 mi South 12.7 mph 23.0 mph N/A   Clear
7:52 PM 93.0 °F 92.0 °F 57.9 °F 31% 29.85 in 10.0 mi South 15.0 mph - N/A   Clear
8:52 PM 89.1 °F 89.3 °F 62.1 °F 40% 29.85 in 10.0 mi SSE 11.5 mph - N/A   Clear
9:52 PM 86.0 °F 86.8 °F 63.0 °F 46% 29.86 in 10.0 mi SSE 11.5 mph - N/A   Clear
10:52 PM 84.0 °F 84.9 °F 63.0 °F 49% 29.88 in 10.0 mi SSE 11.5 mph - N/A   Clear
11:52 PM 82.9 °F 84.4 °F 64.0 °F 53% 29.90 in 10.0 mi South 16.1 mph 23.0 mph N/A   Clear